SL-16 DEB, 22645

Orbit data source: Space-Track

SL-16 DEB, 22645 is space debris in LEO originally from a launch on Fri, 26 Mar 1993 UTC launched from the Tyuratam Missile And Space Complex (TTMTR). Debris objects in space refer to the collection of defunct objects orbiting the Earth. Examples of debris include non-operational satellites, rocket bodies, and fragments generated from explosions, collisions, or faulty payload assembly.

Loading next visibility...
Identifier
22645, 1993-016AF
Orbit
LEO
Country
Flag of CISCIS
Related business
Manufacturer
Unknown
Mission
Spacecraft
Bus & Motor
Unknown
Mass
Unknown
Launch date (UTC)
1993-03-26 (33 years ago)
Launch vehicle
Unknown
Launch site
Tyuratam Missile And Space Complex (TTMTR)
Object type
Payload
Rocket body
Debris
Shape & HBR
Unknown shape, 0.1 m
Radar Cross Section
Small (<0.1 m²)

Expand to show TLE details & history
Last TLE update: 15 hours ago

TLE from 15 hours ago
0 SL-16 DEB
1 22645U 93016AF  26034.99731181  .00000776  00000-0  63101-3 0  9996
2 22645  70.9838 252.9489 0168831 174.1008 186.2144 13.86533488653877
Epoch: 2026-02-03T23:56Z
TLE epoch observation values (Epoch: 2026-02-03T23:56:07.740Z)
Latitude
Longitude
119.74643°
Altitude
1,066.054 km
Speed
7.258 km/s
True Right ascension
16h 51m 47s
True Declination
0° 00' 00"
Sunlit
Object was in daylight at epoch
Visualization orbit readout
Latitude
Unknown
Longitude
Unknown
Altitude
Unknown
Speed
Unknown
Apparent Right ascension
Unknown
Apparent Declination
Unknown
Sunlit
N/A
Visualization observer readout
Local Sidereal Time
17:12:51
Azimuth
Unknown
Elevation
Unknown
Doppler factor
Unknown
Orbital elements
Apogee altitude
1,062.29 km
Perigee altitude
815.226 km
Semi-major axis
7,316.895 km
Eccentricity
0.01688
Inclination
70.9838°
RAAN
252.9489°
Arg. of periapsis
174.1008°
True anomaly
186.00928°
Mean anomaly
186.2144°
Eccentric anomaly
186.11142°
Mean motion
3.46779 °/min
Orbital period
103.81 mins
BSTAR
0.00063101
Loading maneuver chart data...
Computing Atmospheric mass density...
Loading historical data...
Loading historical data...
Loading historical data...
Loading historical data...
Loading historical data...
Loading historical data...
Loading historical data...

Documentation

Showing up to 5 results
|